User: anonymous   Login
Location: A O Calhoun Middle School
(33.2198°N, 97.1397°W)
Time: 12:04:36
(UTC+00:00)
Language:

DELTA 2 R/B (1) - Orbit

View from above orbital plane
View from above orbital plane
View from above satellite
View from above satellite

Ground track
Ground track

The orbit data is extracted from the following two-line orbital elements,

1 27665U 03005C   22137.80004843  .00000085  00000-0  67261-4 0  9995
2 27665  39.5768 326.3319 0007251  55.6041 319.9019 14.28608730  7636
Epoch (UTC): 17 May 2022 19:12:04
Eccentricity: 0.0007251
inclination: 39.5768°
perigee height: 791 km
apogee height: 801 km
right ascension of ascending node: 326.3319°
argument of perigee: 55.6041°
revolutions per day: 14.28608730
mean anomaly at epoch: 319.9019°
orbit number at epoch: 763

The dashed part of the orbit path shows where the satellite is in the earth's shadow,  

DLR